Rush City, MN

11:04 AM CST on February 12, 2016 (GMT -0600)
Rush City Regional

Weather History for KROS - February, 2014

Change the Weather History Date:

Friday, February 21, 2014

  Actual Average (KCBG) Record (KCBG)
Temperature  
Mean Temperature 12 °F -  
Max Temperature 17 °F 32 °F 49 °F (1961)
Min Temperature 6 °F 11 °F -24 °F (1963)
Degree Days  
Heating Degree Days 54    
Moisture  
Dew Point 5 °F    
Average Humidity 79    
Maximum Humidity 89    
Minimum Humidity 69    
Precipitation  
Precipitation 0.00 in - - ()
Sea Level Pressure  
Sea Level Pressure 29.45 in    
Wind  
Wind Speed 15 mph (West)    
Max Wind Speed 22 mph    
Max Gust Speed 32 mph    
Visibility 9 miles    
Events Snow    
Averages and records for this station are not official NWS values.
T = Trace of Precipitation, MM = Missing Value Source: NWS Daily Summary

Daily Weather History Graph

Daily Weather History Graph

Search for Another Location

Airport or City:

Trip Planner

Search our weather history database for the weather conditions in past years. The results will help you decide how hot, cold, wet, or windy it might be!

Date:

Astronomy

Feb. 21, 2014 Rise Set
Actual Time 7:04 AM CST 5:47 PM CST
Civil Twilight 6:33 AM CST 6:17 PM CST
Nautical Twilight 5:59 AM CST 6:52 PM CST
Astronomical Twilight 5:25 AM CST 7:26 PM CST
Moon 12:00 AM CST (2/21) 10:08 AM CST (2/21)
Length of Visible Light 11h 43m
Length of Day
10h 43m
Waning Gibbous, 60% of the Moon is Illuminated
Feb 21
Waning Gibbous
Feb 22
Last Quarter
Mar 1
New
Mar 8
First Quarter
Mar 16
Full

Hourly Weather History & Observations

Time (CST) Temp. Windchill Dew Point Humidity Pressure Visibility Wind Dir Wind Speed Gust Speed Precip Events Conditions
12:14 AM 17.4 °F 2.4 °F 14.7 °F 89% 29.23 in 3.0 mi WNW 16.1 mph 26.5 mph N/A Snow Light Snow
12:35 AM 16.3 °F 0.1 °F 13.6 °F 89% 29.23 in 3.0 mi NW 18.4 mph 29.9 mph N/A Snow Light Snow
12:55 AM 15.8 °F 0.9 °F 13.1 °F 89% 29.22 in 4.0 mi WNW 15.0 mph 29.9 mph N/A   Overcast
1:14 AM 15.8 °F -0.2 °F 12.7 °F 88% 29.24 in 4.0 mi WNW 17.3 mph 32.2 mph N/A   Overcast
1:35 AM 14.9 °F -1.3 °F 12.0 °F 88% 29.24 in 5.0 mi WNW 17.3 mph 26.5 mph N/A Snow Light Snow
1:54 AM 14.9 °F -0.8 °F 11.7 °F 87% 29.24 in 5.0 mi WNW 16.1 mph 25.3 mph N/A Snow Light Snow
2:15 AM 14.0 °F -2.5 °F 10.8 °F 87% 29.24 in 5.0 mi WNW 17.3 mph 26.5 mph N/A Snow Light Snow
2:34 AM 13.5 °F -4.2 °F 10.2 °F 87% 29.24 in 5.0 mi WNW 19.6 mph 29.9 mph N/A   Overcast
2:55 AM 13.5 °F 0.5 °F 10.0 °F 86% 29.25 in 5.0 mi WNW 10.4 mph 25.3 mph N/A Snow Light Snow
3:15 AM 13.1 °F -2.0 °F 9.7 °F 86% 29.25 in 5.0 mi WNW 13.8 mph 21.9 mph N/A Snow Light Snow
3:34 AM 12.7 °F -2.5 °F 9.5 °F 87% 29.26 in 5.0 mi WNW 13.8 mph 21.9 mph N/A Snow Light Snow
3:55 AM 12.2 °F -4.8 °F 8.8 °F 86% 29.28 in 5.0 mi West 17.3 mph 25.3 mph N/A Snow Light Snow
4:15 AM 11.5 °F -5.8 °F 8.1 °F 86% 29.28 in 5.0 mi West 17.3 mph 26.5 mph N/A Snow Light Snow
4:34 AM 10.8 °F -5.0 °F 7.3 °F 86% 29.29 in 5.0 mi West 13.8 mph 24.2 mph N/A Snow Light Snow
4:55 AM 10.0 °F -7.6 °F 6.3 °F 85% 29.30 in 7.0 mi West 17.3 mph 24.2 mph N/A   Overcast
5:15 AM 9.5 °F -8.3 °F 5.9 °F 85% 29.30 in 5.0 mi West 17.3 mph 26.5 mph N/A Snow Light Snow
5:34 AM 9.5 °F -5.9 °F 5.7 °F 85% 29.30 in 10.0 mi WNW 12.7 mph 26.5 mph N/A   Overcast
5:55 AM 9.5 °F -7.2 °F 5.5 °F 84% 29.31 in 7.0 mi West 15.0 mph 21.9 mph N/A   Overcast
6:15 AM 9.5 °F -5.9 °F 5.5 °F 84% 29.31 in 10.0 mi West 12.7 mph 23.0 mph N/A   Overcast
6:35 AM 9.5 °F -5.2 °F 5.2 °F 83% 29.31 in 10.0 mi West 11.5 mph 18.4 mph N/A   Overcast
6:55 AM 9.1 °F -7.0 °F 4.8 °F 83% 29.32 in 10.0 mi West 13.8 mph 21.9 mph N/A   Overcast
7:15 AM 9.1 °F -6.4 °F 4.8 °F 83% 29.33 in 10.0 mi West 12.7 mph 19.6 mph N/A   Overcast
7:35 AM 9.3 °F -6.8 °F 5.0 °F 83% 29.34 in 10.0 mi West 13.8 mph 21.9 mph N/A   Overcast
7:55 AM 9.1 °F -6.4 °F 4.6 °F 82% 29.35 in 10.0 mi West 12.7 mph - N/A   Overcast
8:15 AM 9.0 °F -5.1 °F 4.5 °F 82% 29.36 in 10.0 mi West 10.4 mph 19.6 mph N/A   Overcast
8:34 AM 9.0 °F -7.9 °F 4.1 °F 81% 29.36 in 10.0 mi West 15.0 mph 23.0 mph N/A   Overcast
8:55 AM 8.6 °F -9.5 °F 4.1 °F 82% 29.37 in 10.0 mi West 17.3 mph 23.0 mph N/A   Overcast
9:15 AM 8.6 °F -8.3 °F 4.1 °F 82% 29.38 in 5.0 mi West 15.0 mph 20.7 mph N/A   Overcast
9:35 AM 8.6 °F -7.0 °F 3.9 °F 81% 29.38 in 7.0 mi West 12.7 mph 21.9 mph N/A   Overcast
9:55 AM 8.4 °F -8.6 °F 3.2 °F 79% 29.39 in 10.0 mi West 15.0 mph 24.2 mph N/A   Overcast
10:15 AM 8.6 °F -9.5 °F 3.2 °F 79% 29.40 in 10.0 mi West 17.3 mph 26.5 mph N/A   Overcast
10:35 AM 8.8 °F -9.3 °F 3.2 °F 78% 29.41 in 10.0 mi West 17.3 mph 25.3 mph N/A   Overcast
10:54 AM 8.8 °F -10.3 °F 3.2 °F 78% 29.41 in 10.0 mi West 19.6 mph 26.5 mph N/A   Overcast
11:15 AM 9.7 °F -8.6 °F 3.7 °F 77% 29.43 in 10.0 mi West 18.4 mph 24.2 mph N/A   Overcast
11:35 AM 9.9 °F -8.4 °F 3.7 °F 76% 29.43 in 10.0 mi West 18.4 mph 27.6 mph N/A   Overcast
11:54 AM 9.5 °F -8.3 °F 3.2 °F 76% 29.44 in 10.0 mi West 17.3 mph 26.5 mph N/A   Overcast
12:15 PM 10.0 °F -7.6 °F 3.7 °F 76% 29.44 in 10.0 mi West 17.3 mph 27.6 mph N/A   Overcast
12:35 PM 10.4 °F -8.2 °F 3.9 °F 75% 29.44 in 10.0 mi West 19.6 mph 27.6 mph N/A   Overcast
12:54 PM 11.1 °F -5.1 °F 4.5 °F 75% 29.45 in 10.0 mi West 15.0 mph 26.5 mph N/A   Overcast
1:15 PM 11.1 °F -3.2 °F 4.6 °F 75% 29.45 in 10.0 mi West 11.5 mph 24.2 mph N/A   Overcast
1:34 PM 11.8 °F -7.2 °F 4.8 °F 73% 29.46 in 10.0 mi West 21.9 mph 26.5 mph N/A   Overcast
1:55 PM 12.0 °F -2.7 °F 4.6 °F 72% 29.46 in 10.0 mi West 12.7 mph 29.9 mph N/A   Overcast
2:15 PM 12.0 °F -5.1 °F 4.6 °F 72% 29.48 in 10.0 mi West 17.3 mph 25.3 mph N/A   Overcast
2:34 PM 12.6 °F -4.9 °F 4.8 °F 71% 29.48 in 10.0 mi West 18.4 mph 28.8 mph N/A   Overcast
2:55 PM 14.0 °F -3.9 °F 5.7 °F 70% 29.49 in 10.0 mi West 20.7 mph 27.6 mph N/A   Overcast
3:14 PM 13.5 °F -4.2 °F 5.4 °F 70% 29.50 in 10.0 mi West 19.6 mph 29.9 mph N/A   Mostly Cloudy
3:35 PM 13.8 °F -1.7 °F 5.7 °F 70% 29.51 in 10.0 mi West 15.0 mph 20.7 mph N/A   Scattered Clouds
3:55 PM 13.5 °F -2.7 °F 5.0 °F 69% 29.53 in 10.0 mi West 16.1 mph 23.0 mph N/A   Scattered Clouds
4:14 PM 13.3 °F -1.1 °F 5.0 °F 70% 29.54 in 10.0 mi West 12.7 mph 26.5 mph N/A   Scattered Clouds
4:35 PM 12.9 °F -2.2 °F 4.6 °F 70% 29.54 in 10.0 mi West 13.8 mph 26.5 mph N/A   Scattered Clouds
4:55 PM 12.2 °F -4.3 °F 4.1 °F 70% 29.56 in 10.0 mi West 16.1 mph 21.9 mph N/A   Clear
5:14 PM 11.8 °F -3.6 °F 3.9 °F 71% 29.57 in 10.0 mi West 13.8 mph 25.3 mph N/A   Clear
5:35 PM 11.1 °F -6.7 °F 3.6 °F 72% 29.58 in 10.0 mi West 18.4 mph 25.3 mph N/A   Clear
5:55 PM 10.6 °F -6.9 °F 3.4 °F 73% 29.59 in 10.0 mi West 17.3 mph 23.0 mph N/A   Scattered Clouds
6:14 PM 10.4 °F -5.4 °F 3.2 °F 73% 29.60 in 10.0 mi West 13.8 mph 21.9 mph N/A   Scattered Clouds
6:35 PM 10.0 °F -5.9 °F 3.2 °F 74% 29.61 in 10.0 mi West 13.8 mph 17.3 mph N/A   Scattered Clouds
6:55 PM 9.9 °F -4.7 °F 3.2 °F 74% 29.62 in 10.0 mi West 11.5 mph 17.3 mph N/A   Scattered Clouds
7:14 PM 9.5 °F -5.9 °F 3.2 °F 76% 29.62 in 10.0 mi West 12.7 mph 17.3 mph N/A   Scattered Clouds
7:35 PM 9.5 °F -5.2 °F 3.2 °F 76% 29.63 in 10.0 mi West 11.5 mph 24.2 mph N/A   Clear
7:54 PM 9.1 °F -5.6 °F 3.0 °F 76% 29.64 in 10.0 mi West 11.5 mph 16.1 mph N/A   Scattered Clouds
8:15 PM 8.6 °F -4.7 °F 3.0 °F 78% 29.65 in 10.0 mi West 9.2 mph - N/A   Scattered Clouds
8:35 PM 8.6 °F -6.3 °F 3.0 °F 78% 29.66 in 10.0 mi West 11.5 mph 17.3 mph N/A   Scattered Clouds
8:54 PM 8.6 °F -7.7 °F 2.8 °F 77% 29.67 in 10.0 mi West 13.8 mph 18.4 mph N/A   Clear
9:15 PM 8.2 °F -8.2 °F 2.5 °F 77% 29.67 in 10.0 mi West 13.8 mph 18.4 mph N/A   Scattered Clouds
9:35 PM 7.7 °F -7.4 °F 2.3 °F 79% 29.68 in 10.0 mi West 11.5 mph - N/A   Scattered Clouds
9:54 PM 7.7 °F -7.4 °F 2.3 °F 79% 29.68 in 10.0 mi West 11.5 mph 19.6 mph N/A   Mostly Cloudy
10:15 PM 7.5 °F -7.7 °F 2.1 °F 79% 29.68 in 10.0 mi West 11.5 mph - N/A   Scattered Clouds
10:35 PM 7.5 °F -6.9 °F 2.1 °F 79% 29.69 in 10.0 mi West 10.4 mph 17.3 mph N/A   Mostly Cloudy
10:54 PM 7.3 °F -6.2 °F 1.9 °F 79% 29.69 in 10.0 mi West 9.2 mph 17.3 mph N/A   Mostly Cloudy
11:15 PM 6.8 °F -7.8 °F 1.4 °F 79% 29.70 in 10.0 mi West 10.4 mph 16.1 mph N/A   Scattered Clouds
11:35 PM 6.8 °F -6.9 °F 1.4 °F 79% 29.70 in 10.0 mi West 9.2 mph - N/A   Scattered Clouds
11:54 PM 6.3 °F -8.4 °F 1.0 °F 79% 29.70 in 10.0 mi West 10.4 mph - N/A   Scattered Clouds